[ hide orbit diagram ]
For accurate long-term ephemerides, please instead use our Horizons system.This orbit viewer was implemented using two-body methods, and hence should not be used for determining accurate long-term trajectories (over several years or decades) or planetary encounter circumstances.
Orbital Elements at Epoch 2459000.5 (2020-May-31.0) TDB
Reference: JPL 23 (heliocentric ecliptic J2000)
Element | Value | Uncertainty (1-sigma) | Units |
e | .1770373684015477 | 4.1908e-08 | |
a | 2.270052501462451 | 8.0252e-09 | au |
q | 1.868168380470188 | 9.6435e-08 | au |
i | 25.48664571559227 | 6.0638e-06 | deg |
node | 69.90936448456284 | 1.0184e-05 | deg |
peri | 42.21908885001124 | 2.2312e-05 | deg |
M | 23.25904058808789 | 1.7204e-05 | deg |
tp | 2458919.787355845319 (2020-Mar-11.28735585) | 5.9636e-05 | TDB |
period | 1249.258402797855 3.42 | 6.6247e-06 1.814e-08 | d yr |
n | .2881709654253592 | 1.5281e-09 | deg/d |
Q | 2.671936622454714 | 9.446e-09 | au |
|
| | Orbit Determination Parameters
Additional Information
|
[ show covariance matrix ]
Physical Parameter Table
Parameter |
Symbol |
Value |
Units |
Sigma |
Reference |
Notes |
absolute magnitude |
H |
15.24 |
|
n/a |
E2021B10 |
|
diameter |
diameter |
2.451 |
km |
0.117 |
urn:nasa:pds:neowise_diameters_albedos::2.0[mainbelt] (http://adsabs.harvard.edu/abs/2011ApJ...741...68M) |
|
geometric albedo |
albedo |
0.354 |
|
0.043 |
urn:nasa:pds:neowise_diameters_albedos::2.0[mainbelt] (http://adsabs.harvard.edu/abs/2011ApJ...741...68M) |
|
|
58410 (1995 YS) Discovered 1995-Dec-17 by Sato, N., Urata, T. at Chichibu |
Reference: 20030614/Numbers.arc | Last Updated: 2004-04-19 |
|
|